Time,TemperatureF,DewpointF,PressureIn,WindDirection,WindDirectionDegrees,WindSpeedMPH,WindSpeedGustMPH,Humidity,HourlyPrecipIn,Conditions,Clouds,dailyrainin,SolarRadiationWatts/m^2,SoftwareType,DateUTC
2013-09-12 00:02:00,59.0,57.0,-100.00,West,279,0.0,0.0,94,0.00,,,-99.99,0.000000,,2013-09-12 07:02:00,
2013-09-12 00:12:00,59.0,57.0,-100.00,West,279,0.0,0.0,94,0.00,,,-99.99,0.000000,,2013-09-12 07:12:00,
2013-09-12 00:21:00,59.0,57.0,-100.00,West,279,0.0,0.0,94,0.00,,,-99.99,0.000000,,2013-09-12 07:21:00,
2013-09-12 00:32:00,59.0,57.0,-100.00,West,279,0.0,0.0,94,0.00,,,-99.99,0.000000,,2013-09-12 07:32:00,
2013-09-12 01:11:00,59.0,58.0,-100.00,West,274,0.0,0.0,95,0.00,,,0.00,0.000000,,2013-09-12 08:11:00,
2013-09-12 01:22:00,59.0,58.0,-100.00,West,274,0.0,0.0,95,0.00,,,0.00,0.000000,,2013-09-12 08:22:00,
2013-09-12 01:32:00,59.0,58.0,-100.00,West,274,0.0,0.0,95,0.00,,,0.00,0.000000,,2013-09-12 08:32:00,
2013-09-12 01:33:00,59.0,58.0,-100.00,West,275,0.0,2.0,95,0.00,,,0.00,1.000000,,2013-09-12 08:33:00,
2013-09-12 01:52:00,59.0,58.0,-100.00,West,275,0.0,2.0,95,0.00,,,0.00,1.000000,,2013-09-12 08:52:00,
2013-09-12 02:02:00,59.0,58.0,-100.00,West,275,0.0,2.0,95,0.00,,,0.00,1.000000,,2013-09-12 09:02:00,
2013-09-12 02:12:00,59.0,58.0,-100.00,West,275,0.0,2.0,95,0.00,,,0.00,1.000000,,2013-09-12 09:12:00,
2013-09-12 02:21:00,59.0,58.0,-100.00,West,275,0.0,2.0,95,0.00,,,0.00,1.000000,,2013-09-12 09:21:00,
2013-09-12 02:33:00,58.0,57.0,-100.00,West,275,0.0,0.0,95,0.00,,,0.00,0.000000,,2013-09-12 09:33:00,
2013-09-12 02:53:00,58.0,57.0,-100.00,West,275,0.0,0.0,95,0.00,,,0.00,0.000000,,2013-09-12 09:53:00,
2013-09-12 03:03:00,58.0,57.0,-100.00,West,275,0.0,0.0,95,0.00,,,0.00,0.000000,,2013-09-12 10:03:00,
2013-09-12 03:12:00,58.0,57.0,-100.00,West,275,0.0,0.0,95,0.00,,,0.00,0.000000,,2013-09-12 10:12:00,
2013-09-12 03:23:00,58.0,57.0,-100.00,West,275,0.0,0.0,95,0.00,,,0.00,0.000000,,2013-09-12 10:23:00,
2013-09-12 03:33:00,58.0,57.0,-100.00,West,278,0.0,1.0,95,0.00,,,-99.99,0.000000,,2013-09-12 10:33:00,
2013-09-12 03:53:00,58.0,57.0,-100.00,West,278,0.0,1.0,95,0.00,,,-99.99,0.000000,,2013-09-12 10:53:00,
2013-09-12 04:03:00,58.0,57.0,-100.00,West,278,0.0,1.0,95,0.00,,,-99.99,0.000000,,2013-09-12 11:03:00,
2013-09-12 04:11:00,58.0,57.0,-100.00,West,278,0.0,1.0,95,0.00,,,-99.99,0.000000,,2013-09-12 11:11:00,
2013-09-12 04:22:00,58.0,57.0,-100.00,West,278,0.0,1.0,95,0.00,,,-99.99,0.000000,,2013-09-12 11:22:00,
2013-09-12 04:52:00,58.0,57.0,-100.00,West,263,0.0,1.0,95,0.00,,,0.00,0.000000,,2013-09-12 11:52:00,
2013-09-12 05:01:00,58.0,57.0,-100.00,West,263,0.0,1.0,95,0.00,,,0.00,0.000000,,2013-09-12 12:01:00,
2013-09-12 05:11:00,58.0,57.0,-100.00,West,263,0.0,1.0,95,0.00,,,0.00,0.000000,,2013-09-12 12:11:00,
2013-09-12 05:21:00,58.0,57.0,-100.00,West,263,0.0,1.0,95,0.00,,,0.00,0.000000,,2013-09-12 12:21:00,
2013-09-12 05:31:00,58.0,57.0,-100.00,West,263,0.0,1.0,95,0.00,,,0.00,0.000000,,2013-09-12 12:31:00,
2013-09-12 05:52:00,57.0,56.0,-100.00,West,260,0.0,0.0,96,0.00,,,0.00,0.000000,,2013-09-12 12:52:00,
2013-09-12 06:02:00,57.0,56.0,-100.00,West,260,0.0,0.0,96,0.00,,,0.00,0.000000,,2013-09-12 13:02:00,
2013-09-12 06:11:00,57.0,56.0,-100.00,West,260,0.0,0.0,96,0.00,,,0.00,0.000000,,2013-09-12 13:11:00,
2013-09-12 06:22:00,57.0,56.0,-100.00,West,260,0.0,0.0,96,0.00,,,0.00,0.000000,,2013-09-12 13:22:00,
2013-09-12 06:32:00,57.0,56.0,-100.00,West,260,0.0,0.0,96,0.00,,,0.00,0.000000,,2013-09-12 13:32:00,
2013-09-12 06:52:00,57.0,56.0,-100.00,West,259,0.0,0.0,96,0.00,,,0.00,1.000000,,2013-09-12 13:52:00,
2013-09-12 07:02:00,57.0,56.0,-100.00,West,259,0.0,0.0,96,0.00,,,0.00,1.000000,,2013-09-12 14:02:00,
2013-09-12 07:11:00,57.0,56.0,-100.00,West,259,0.0,0.0,96,0.00,,,0.00,1.000000,,2013-09-12 14:11:00,
2013-09-12 07:22:00,57.0,56.0,-100.00,West,259,0.0,0.0,96,0.00,,,0.00,1.000000,,2013-09-12 14:22:00,
2013-09-12 07:32:00,57.0,56.0,-100.00,West,259,0.0,0.0,96,0.00,,,0.00,1.000000,,2013-09-12 14:32:00,
2013-09-12 07:33:00,57.0,56.0,-100.00,West,276,0.0,0.0,96,0.00,,,-99.99,8.000000,,2013-09-12 14:33:00,
2013-09-12 07:52:00,57.0,56.0,-100.00,West,276,0.0,0.0,96,0.00,,,-99.99,8.000000,,2013-09-12 14:52:00,
2013-09-12 08:02:00,57.0,56.0,-100.00,West,276,0.0,0.0,96,0.00,,,-99.99,8.000000,,2013-09-12 15:02:00,
2013-09-12 08:11:00,57.0,56.0,-100.00,West,276,0.0,0.0,96,0.00,,,-99.99,8.000000,,2013-09-12 15:11:00,
2013-09-12 08:22:00,57.0,56.0,-100.00,West,276,0.0,0.0,96,0.00,,,-99.99,8.000000,,2013-09-12 15:22:00,
2013-09-12 08:33:00,57.0,56.0,-100.00,West,269,0.0,1.0,96,0.00,,,0.00,48.000000,,2013-09-12 15:33:00,
2013-09-12 09:13:00,57.0,56.0,-100.00,West,269,0.0,1.0,96,0.00,,,0.00,48.000000,,2013-09-12 16:13:00,
2013-09-12 09:23:00,57.0,56.0,-100.00,West,269,0.0,1.0,96,0.00,,,0.00,48.000000,,2013-09-12 16:23:00,
2013-09-12 09:33:00,57.0,56.0,-100.00,West,272,0.0,0.0,96,0.00,,,0.00,117.000000,,2013-09-12 16:33:00,
2013-09-12 09:53:00,57.0,56.0,-100.00,West,272,0.0,0.0,96,0.00,,,0.00,117.000000,,2013-09-12 16:53:00,
2013-09-12 10:03:00,57.0,56.0,-100.00,West,272,0.0,0.0,96,0.00,,,0.00,117.000000,,2013-09-12 17:03:00,
2013-09-12 10:12:00,57.0,56.0,-100.00,West,272,0.0,0.0,96,0.00,,,0.00,117.000000,,2013-09-12 17:12:00,
2013-09-12 10:23:00,57.0,56.0,-100.00,West,272,0.0,0.0,96,0.00,,,0.00,117.000000,,2013-09-12 17:23:00,
2013-09-12 11:12:00,58.0,57.0,-100.00,West,261,0.0,0.0,96,0.00,,,0.00,240.000000,,2013-09-12 18:12:00,
2013-09-12 11:22:00,58.0,57.0,-100.00,West,261,0.0,0.0,96,0.00,,,0.00,240.000000,,2013-09-12 18:22:00,
2013-09-12 11:32:00,58.0,57.0,-100.00,West,261,0.0,0.0,96,0.00,,,0.00,240.000000,,2013-09-12 18:32:00,
2013-09-12 11:52:00,63.0,56.0,-100.00,West,275,0.0,0.0,79,0.00,,,0.00,550.000000,,2013-09-12 18:52:00,
2013-09-12 12:02:00,63.0,56.0,-100.00,West,275,0.0,0.0,79,0.00,,,0.00,550.000000,,2013-09-12 19:02:00,
2013-09-12 12:12:00,63.0,56.0,-100.00,West,275,0.0,0.0,79,0.00,,,0.00,550.000000,,2013-09-12 19:12:00,
2013-09-12 12:22:00,63.0,56.0,-100.00,West,275,0.0,0.0,79,0.00,,,0.00,550.000000,,2013-09-12 19:22:00,
2013-09-12 12:32:00,63.0,56.0,-100.00,West,275,0.0,0.0,79,0.00,,,0.00,550.000000,,2013-09-12 19:32:00,
2013-09-12 12:52:00,71.0,57.0,-100.00,South,181,0.0,4.0,62,0.00,,,0.00,758.000000,,2013-09-12 19:52:00,
2013-09-12 13:02:00,71.0,57.0,-100.00,South,181,0.0,4.0,62,0.00,,,0.00,758.000000,,2013-09-12 20:02:00,
2013-09-12 13:11:00,71.0,57.0,-100.00,South,181,0.0,4.0,62,0.00,,,0.00,758.000000,,2013-09-12 20:11:00,
2013-09-12 13:22:00,71.0,57.0,-100.00,South,181,0.0,4.0,62,0.00,,,0.00,758.000000,,2013-09-12 20:22:00,
2013-09-12 13:32:00,71.0,57.0,-100.00,South,181,0.0,4.0,62,0.00,,,0.00,758.000000,,2013-09-12 20:32:00,
2013-09-12 13:33:00,78.0,57.0,-100.00,WSW,245,0.0,2.0,49,0.00,,,0.00,804.000000,,2013-09-12 20:33:00,
2013-09-12 14:11:00,78.0,57.0,-100.00,WSW,245,0.0,2.0,49,0.00,,,0.00,804.000000,,2013-09-12 21:11:00,
2013-09-12 14:21:00,78.0,57.0,-100.00,WSW,245,0.0,2.0,49,0.00,,,0.00,804.000000,,2013-09-12 21:21:00,
2013-09-12 14:33:00,75.0,55.0,-100.00,West,274,0.0,11.0,50,0.00,,,0.00,784.000000,,2013-09-12 21:33:00,
2013-09-12 14:54:00,75.0,55.0,-100.00,West,274,0.0,11.0,50,0.00,,,0.00,784.000000,,2013-09-12 21:54:00,
2013-09-12 15:04:00,75.0,55.0,-100.00,West,274,0.0,11.0,50,0.00,,,0.00,784.000000,,2013-09-12 22:04:00,
2013-09-12 15:13:00,75.0,55.0,-100.00,West,274,0.0,11.0,50,0.00,,,0.00,784.000000,,2013-09-12 22:13:00,
2013-09-12 15:24:00,75.0,55.0,-100.00,West,274,0.0,11.0,50,0.00,,,0.00,784.000000,,2013-09-12 22:24:00,
2013-09-12 15:33:00,70.0,54.0,-100.00,West,279,1.0,12.0,57,0.00,,,0.00,716.000000,,2013-09-12 22:33:00,
2013-09-12 15:54:00,70.0,54.0,-100.00,West,279,1.0,12.0,57,0.00,,,0.00,716.000000,,2013-09-12 22:54:00,
2013-09-12 16:04:00,70.0,54.0,-100.00,West,279,1.0,12.0,57,0.00,,,0.00,716.000000,,2013-09-12 23:04:00,
2013-09-12 16:12:00,70.0,54.0,-100.00,West,279,1.0,12.0,57,0.00,,,0.00,716.000000,,2013-09-12 23:12:00,
2013-09-12 16:23:00,70.0,54.0,-100.00,West,279,1.0,12.0,57,0.00,,,0.00,716.000000,,2013-09-12 23:23:00,
2013-09-12 16:53:00,66.0,53.0,-100.00,WNW,286,3.0,19.0,63,0.00,,,0.00,591.000000,,2013-09-12 23:53:00,
2013-09-12 17:01:00,66.0,53.0,-100.00,WNW,286,3.0,19.0,63,0.00,,,0.00,591.000000,,2013-09-13 00:01:00,
2013-09-12 17:11:00,66.0,53.0,-100.00,WNW,286,3.0,19.0,63,0.00,,,0.00,591.000000,,2013-09-13 00:11:00,
2013-09-12 17:22:00,66.0,53.0,-100.00,WNW,286,3.0,19.0,63,0.00,,,0.00,591.000000,,2013-09-13 00:22:00,
2013-09-12 17:32:00,66.0,53.0,-100.00,WNW,286,3.0,19.0,63,0.00,,,0.00,591.000000,,2013-09-13 00:32:00,
2013-09-12 17:52:00,64.0,53.0,-100.00,West,264,2.0,19.0,67,0.00,,,0.00,426.000000,,2013-09-13 00:52:00,
2013-09-12 18:01:00,64.0,53.0,-100.00,West,264,2.0,19.0,67,0.00,,,0.00,426.000000,,2013-09-13 01:01:00,
2013-09-12 18:11:00,64.0,53.0,-100.00,West,264,2.0,19.0,67,0.00,,,0.00,426.000000,,2013-09-13 01:11:00,
2013-09-12 18:22:00,64.0,53.0,-100.00,West,264,2.0,19.0,67,0.00,,,0.00,426.000000,,2013-09-13 01:22:00,
2013-09-12 18:32:00,64.0,53.0,-100.00,West,264,2.0,19.0,67,0.00,,,0.00,426.000000,,2013-09-13 01:32:00,
2013-09-12 18:53:00,60.0,54.0,-100.00,West,275,3.0,22.0,80,0.00,,,0.00,240.000000,,2013-09-13 01:53:00,
2013-09-12 19:02:00,60.0,54.0,-100.00,West,275,3.0,22.0,80,0.00,,,0.00,240.000000,,2013-09-13 02:02:00,
2013-09-12 19:11:00,60.0,54.0,-100.00,West,275,3.0,22.0,80,0.00,,,0.00,240.000000,,2013-09-13 02:11:00,
2013-09-12 19:22:00,60.0,54.0,-100.00,West,275,3.0,22.0,80,0.00,,,0.00,240.000000,,2013-09-13 02:22:00,
2013-09-12 19:32:00,60.0,54.0,-100.00,West,275,3.0,22.0,80,0.00,,,0.00,240.000000,,2013-09-13 02:32:00,
2013-09-12 19:33:00,57.0,53.0,-100.00,West,281,0.0,20.0,88,0.00,,,0.00,43.000000,,2013-09-13 02:33:00,
2013-09-12 19:53:00,57.0,53.0,-100.00,West,281,0.0,20.0,88,0.00,,,0.00,43.000000,,2013-09-13 02:53:00,
2013-09-12 20:02:00,57.0,53.0,-100.00,West,281,0.0,20.0,88,0.00,,,0.00,43.000000,,2013-09-13 03:02:00,
2013-09-12 20:11:00,57.0,53.0,-100.00,West,281,0.0,20.0,88,0.00,,,0.00,43.000000,,2013-09-13 03:11:00,
2013-09-12 20:22:00,57.0,53.0,-100.00,West,281,0.0,20.0,88,0.00,,,0.00,43.000000,,2013-09-13 03:22:00,
2013-09-12 20:33:00,57.0,54.0,-100.00,West,276,1.0,18.0,89,0.00,,,0.00,1.000000,,2013-09-13 03:33:00,
2013-09-12 20:55:00,57.0,54.0,-100.00,West,276,1.0,18.0,89,0.00,,,0.00,1.000000,,2013-09-13 03:55:00,
2013-09-12 21:04:00,57.0,54.0,-100.00,West,276,1.0,18.0,89,0.00,,,0.00,1.000000,,2013-09-13 04:04:00,
2013-09-12 21:14:00,57.0,54.0,-100.00,West,276,1.0,18.0,89,0.00,,,0.00,1.000000,,2013-09-13 04:14:00,
2013-09-12 21:24:00,57.0,54.0,-100.00,West,276,1.0,18.0,89,0.00,,,0.00,1.000000,,2013-09-13 04:24:00,
2013-09-12 21:33:00,56.0,53.0,-100.00,WNW,283,0.0,20.0,91,0.00,,,0.00,1.000000,,2013-09-13 04:33:00,
2013-09-12 21:54:00,56.0,53.0,-100.00,WNW,283,0.0,20.0,91,0.00,,,0.00,1.000000,,2013-09-13 04:54:00,
2013-09-12 22:03:00,56.0,53.0,-100.00,WNW,283,0.0,20.0,91,0.00,,,0.00,1.000000,,2013-09-13 05:03:00,
2013-09-12 22:13:00,56.0,53.0,-100.00,WNW,283,0.0,20.0,91,0.00,,,0.00,1.000000,,2013-09-13 05:13:00,
2013-09-12 22:22:00,56.0,53.0,-100.00,WNW,283,0.0,20.0,91,0.00,,,0.00,1.000000,,2013-09-13 05:22:00,
2013-09-12 22:53:00,55.0,53.0,-100.00,WNW,296,0.0,6.0,94,0.00,,,0.00,1.000000,,2013-09-13 05:53:00,
2013-09-12 23:02:00,55.0,53.0,-100.00,WNW,296,0.0,6.0,94,0.00,,,0.00,1.000000,,2013-09-13 06:02:00,
2013-09-12 23:12:00,55.0,53.0,-100.00,WNW,296,0.0,6.0,94,0.00,,,0.00,1.000000,,2013-09-13 06:12:00,
2013-09-12 23:22:00,55.0,53.0,-100.00,WNW,296,0.0,6.0,94,0.00,,,0.00,1.000000,,2013-09-13 06:22:00,
2013-09-12 23:32:00,55.0,53.0,-100.00,WNW,296,0.0,6.0,94,0.00,,,0.00,1.000000,,2013-09-13 06:32:00,
2013-09-12 23:33:00,54.0,53.0,-100.00,NW,315,0.0,1.0,95,0.00,,,0.00,0.000000,,2013-09-13 06:33:00,